#timestamp,LO_Frequency,Hit,StdDev 
1649854815.9,286046989.8,N
1649854835.7,286046989.5,N
1649854855.5,286046989.8,N
1649854875.4,286046989.3,N
1649854895.2,286046987.8,N
1649854915.1,286046988.1,N
1649854916.0,286046988.1,N
1649854935.8,286046988.2,N
1649854955.6,286046989.1,N
1649854975.5,286046989.1,N
1649854995.3,286046991.2,N
1649855015.2,286046993.1,N
1649855035.9,286046990.6,N
1649855055.7,286046990.2,N
1649855075.6,286046992.7,N
1649855095.4,286046992.2,Y
1649855115.2,286047000.5,P
1649855135.1,286047002.5,N
1649855136.0,286047002.5,N
1649855155.8,286047000.1,N
1649855175.7,286047000.0,N
1649855195.5,286047000.0,N
1649855215.3,286047000.1,N
1649855235.2,286047005.9,N
1649855255.0,286047006.0,N
1649855255.9,286047006.0,N
1649855275.7,286047004.0,N
1649855295.6,286047003.5,N
1649855315.4,286047003.2,N
1649855335.3,286047002.4,N
1649855355.1,286047004.2,N
1649855356.0,286047004.2,N
1649855375.8,286047002.5,N
1649855395.7,286047005.3,N
1649855415.5,286047003.2,N
1649855435.3,286047001.3,N
1649855455.2,286046999.7,N
1649855475.0,286047000.2,N
1649855475.9,286047000.2,N
1649855495.8,286047001.0,N
1649855515.6,286046998.4,N
1649855535.4,286047000.1,N
1649855555.3,286047001.2,N
1649855575.1,286047000.6,N
1649855595.8,286047000.5,N
1649855615.7,286047000.7,N
1649855635.5,286047000.3,N
1649855655.4,286046999.2,N
1649855675.2,286047001.9,N
1649855695.0,286047004.5,N
1649855695.9,286047004.5,N
1649855715.8,286047005.3,N
1649855735.6,286047002.7,N
1649855755.4,286047000.6,N
1649855775.3,286046999.8,N
1649855795.1,286047000.1,N
1649855815.9,286047002.6,N
1649855835.7,286047003.7,N
1649855855.5,286047006.0,Y
1649855875.4,286047005.6,P
1649855895.2,286047005.1,N
1649855915.0,286047007.3,P
1649855916.0,286047007.3,Y
1649855935.8,286047000.8,P
1649855955.6,286046997.0,N
1649855975.5,286046997.4,N
1649855995.3,286046997.6,N
1649856015.1,286046995.8,N
1649856035.9,286046994.9,N
1649856055.7,286046995.8,N
1649856075.6,286046994.8,N
1649856095.4,286046992.2,N
1649856115.2,286046992.0,N
1649856135.1,286046992.1,N
1649856136.0,286046992.1,N
1649856155.8,286046992.0,N
1649856175.6,286046993.5,N
1649856195.5,286046998.0,N
1649856215.3,286046999.1,N
1649856235.2,286046997.2,N
1649856255.9,286046995.9,N
1649856275.7,286046996.4,N
1649856295.6,286046994.4,N
1649856315.4,286046994.7,N
1649856335.2,286046996.0,N
1649856355.1,286046992.3,N
1649856356.0,286046992.3,N
1649856375.8,286046994.3,N
1649856395.7,286046992.3,N
1649856415.5,286046991.9,N
1649856435.3,286046994.8,N
1649856455.2,286046992.7,N
1649856475.9,286046990.7,Y
1649856495.7,286046995.3,P
1649856515.6,286046997.2,P
1649856535.4,286046995.4,P
1649856555.3,286046996.0,Y
1649856575.1,286046998.5,P
1649856576.0,286046998.5,N
1649856595.8,286046998.2,N
1649856645.7,286047000.7,E
1649856655.6,286047002.0,N
1649856675.5,286047006.0,P
1649856695.3,286047005.3,N
1649856715.1,286047005.7,Y
1649856735.9,286047000.1,P
1649856755.7,286047003.1,N
1649856775.5,286047005.8,P
1649856795.4,286047005.8,N
1649856815.2,286047006.6,Y
1649856835.1,286047008.9,P
1649856836.0,286047008.9,P
1649856855.8,286047007.0,N
1649856875.6,286047003.1,N
1649856895.5,286047002.3,N
1649856915.3,286047000.4,N
1649856935.1,286046997.7,N
1649856955.9,286046996.4,N
1649856975.7,286046993.5,N
1649856995.6,286046991.7,N
1649857015.4,286046992.9,N
1649857035.2,286046992.5,N
1649857055.1,286046990.9,N
1649857056.0,286046990.9,N
1649857075.8,286046990.8,N
1649857095.6,286046988.5,N
1649857115.5,286046991.6,N
1649857135.3,286046991.0,N
1649857155.2,286046988.9,N
1649857175.9,286046991.5,N
1649857195.7,286046988.5,N
1649857215.6,286046989.9,N
1649857235.4,286046988.3,N
1649857255.2,286046985.4,N
1649857275.1,286046986.7,N
1649857276.0,286046986.7,N
1649857295.8,286046986.7,N
1649857315.7,286046986.8,N
1649857335.5,286046986.2,N
1649857355.3,286046986.0,N
1649857375.2,286046986.3,N
1649857395.0,286046986.8,N
1649857395.9,286046986.8,N
1649857415.8,286046986.2,N
1649857435.6,286046984.3,Y
1649857455.4,286046995.2,P
1649857475.3,286046995.2,N
1649857495.1,286046995.2,N
1649857515.8,286046993.4,Y
1649857535.7,286047000.4,P
1649857555.5,286047002.8,N
1649857575.4,286047000.7,N
1649857595.2,286046998.3,N
1649857615.0,286046998.9,N
1649857615.9,286046998.9,N
1649857635.8,286046999.4,N
1649857655.6,286046996.0,N
1649857675.4,286046996.0,N
1649857695.3,286046996.1,N
1649857715.1,286046996.1,N
1649857735.9,286046997.1,N
1649857755.7,286046998.9,N
1649857775.5,286046998.1,N
1649857795.4,286046998.1,N
1649857815.2,286047000.3,N
1649857835.0,286046996.9,N
1649857835.9,286046996.9,N
1649857855.8,286046996.9,N
1649857875.6,286046999.6,N
1649857895.5,286046996.8,N
1649857915.3,286046999.4,N
1649857935.1,286046999.1,N
1649857955.9,286046996.6,N
1649857975.7,286046996.8,N
1649857995.5,286046998.5,N
1649858015.4,286046998.9,N
1649858035.2,286046999.1,N
1649858055.1,286046998.5,N
1649858056.0,286046998.5,N
1649858075.8,286047000.0,N
1649858095.6,286047004.4,N
1649858115.5,286047005.8,Y
1649858135.3,286047004.8,P
1649858155.1,286047005.9,N
1649858175.9,286047004.7,N
1649858195.7,286047006.8,N
1649858215.6,286047006.7,N
1649858235.4,286047012.1,Y
1649858255.2,286047006.6,P
1649858275.1,286047005.6,P
1649858276.0,286047005.6,P
1649858295.8,286047005.6,Y
1649858315.6,286046994.9,P
1649858335.5,286046997.0,N
1649858355.3,286046998.9,N
1649858375.2,286046998.9,N
1649858395.9,286046999.9,N
